When you browse on this site, cookies collect data to enhance your experience and personalize the content and advertising you see.
Visit our Privacy Policy to learn more. By continuing to use the site, you agree to this use of cookies and data.
  • In United Kingdom
  • List of Countries
  • For 7 days
  • Water Temperature
  • Satellite Maps
  • Weather Map
  • Weather Widgets
  • user-avatar
    Login

    Hourly Weather Władysławowo

    Today, 26 June, Wednesday

    Time Temperature Precipitation Wind Pressure Humidity
    00:00 +22°C° 0 mm 4 mps 765 mmHg 89%
    01:00 +22°C° 0 mm 4 mps 765 mmHg 89%
    02:00 +22°C° 0 mm 3 mps 765 mmHg 90%
    03:00 +22°C° 0 mm 3 mps 764 mmHg 92%
    04:00 +22°C° 0 mm 3 mps 763 mmHg 93%
    05:00 +24°C° 0 mm 3 mps 763 mmHg 88%
    06:00 +26°C° 0 mm 2 mps 763 mmHg 83%
    07:00 +27°C° 0 mm 2 mps 763 mmHg 77%
    08:00 +29°C° 0 mm 2 mps 763 mmHg 70%
    09:00 +30°C° 0 mm 2 mps 762 mmHg 63%
    10:00 +32°C° 0 mm 2 mps 762 mmHg 55%
    11:00 +32°C° 0 mm 2 mps 762 mmHg 55%
    12:00 +33°C° 0 mm 3 mps 761 mmHg 56%
    13:00 +33°C° 0 mm 3 mps 761 mmHg 56%
    14:00 +32°C° 0.2 mm 4 mps 760 mmHg 57%
    15:00 +32°C° 0.2 mm 5 mps 760 mmHg 58%
    16:00 +30°C° 0.2 mm 6 mps 759 mmHg 59%
    17:00 +29°C° 0 mm 6 mps 759 mmHg 64%
    18:00 +28°C° 0 mm 6 mps 758 mmHg 69%
    19:00 +27°C° 0 mm 7 mps 758 mmHg 75%
    20:00 +26°C° 0 mm 7 mps 758 mmHg 78%
    21:00 +23°C° 0 mm 8 mps 758 mmHg 81%
    22:00 +22°C° 0 mm 9 mps 758 mmHg 83%
    23:00 +21°C° 0 mm 9 mps 758 mmHg 85%

    Tomorrow, 27 June, Thursday

    Time Temperature Precipitation Wind Pressure Humidity
    00:00 +19°C° 0 mm 9 mps 758 mmHg 86%
    01:00 +18°C° 0 mm 8 mps 758 mmHg 88%
    02:00 +18°C° 0.1 mm 8 mps 758 mmHg 89%
    03:00 +17°C° 0.1 mm 8 mps 758 mmHg 91%
    04:00 +17°C° 0.1 mm 8 mps 758 mmHg 92%
    05:00 +17°C° 0.1 mm 7 mps 758 mmHg 92%
    06:00 +17°C° 0.1 mm 7 mps 759 mmHg 92%
    07:00 +17°C° 0.1 mm 7 mps 759 mmHg 92%
    08:00 +17°C° 0.7 mm 6 mps 759 mmHg 92%
    09:00 +16°C° 0.7 mm 6 mps 760 mmHg 93%
    10:00 +16°C° 0.7 mm 5 mps 760 mmHg 93%
    11:00 +17°C° 0.8 mm 6 mps 760 mmHg 91%
    12:00 +19°C° 0.8 mm 6 mps 761 mmHg 88%
    13:00 +20°C° 0.8 mm 6 mps 761 mmHg 86%
    14:00 +19°C° 0.2 mm 6 mps 761 mmHg 84%
    15:00 +19°C° 0.2 mm 6 mps 761 mmHg 82%
    16:00 +19°C° 0.2 mm 6 mps 761 mmHg 80%
    17:00 +19°C° 0 mm 5 mps 762 mmHg 80%
    18:00 +17°C° 0 mm 5 mps 762 mmHg 79%
    19:00 +17°C° 0 mm 4 mps 762 mmHg 78%
    20:00 +16°C° 0 mm 3 mps 762 mmHg 82%
    21:00 +14°C° 0 mm 3 mps 762 mmHg 85%
    22:00 +14°C° 0 mm 2 mps 762 mmHg 89%
    23:00 +13°C° 0 mm 3 mps 762 mmHg 85%

    Day after tomorrow, 28 June, Friday

    Time Temperature Precipitation Wind Pressure Humidity
    00:00 +13°C° 0 mm 4 mps 762 mmHg 82%
    01:00 +13°C° 0 mm 4 mps 762 mmHg 79%
    02:00 +13°C° 0 mm 5 mps 762 mmHg 80%
    03:00 +13°C° 0 mm 5 mps 762 mmHg 81%
    04:00 +14°C° 0 mm 6 mps 762 mmHg 81%
    05:00 +15°C° 0 mm 6 mps 762 mmHg 76%
    06:00 +16°C° 0 mm 5 mps 762 mmHg 71%
    07:00 +19°C° 0 mm 5 mps 763 mmHg 66%
    08:00 +19°C° 0 mm 5 mps 763 mmHg 62%
    09:00 +20°C° 0 mm 6 mps 763 mmHg 58%
    10:00 +20°C° 0 mm 6 mps 763 mmHg 54%
    11:00 +20°C° 0 mm 6 mps 763 mmHg 53%
    12:00 +20°C° 0 mm 7 mps 763 mmHg 53%
    13:00 +20°C° 0 mm 8 mps 764 mmHg 52%
    14:00 +20°C° 0 mm 7 mps 764 mmHg 51%
    15:00 +19°C° 0 mm 6 mps 764 mmHg 50%
    16:00 +19°C° 0 mm 6 mps 764 mmHg 49%
    17:00 +17°C° 0 mm 5 mps 764 mmHg 54%
    18:00 +16°C° 0 mm 5 mps 764 mmHg 59%
    19:00 +15°C° 0 mm 5 mps 764 mmHg 64%
    20:00 +14°C° 0 mm 4 mps 764 mmHg 66%
    21:00 +13°C° 0 mm 3 mps 764 mmHg 68%
    22:00 +12°C° 0 mm 3 mps 764 mmHg 70%
    23:00 +13°C° 0 mm 3 mps 764 mmHg 68%

    29 June, Saturday

    Time Temperature Precipitation Wind Pressure Humidity
    00:00 +13°C° 0 mm 3 mps 764 mmHg 65%
    01:00 +14°C° 0 mm 4 mps 763 mmHg 63%
    02:00 +14°C° 0 mm 4 mps 763 mmHg 73%
    03:00 +13°C° 0 mm 4 mps 763 mmHg 82%
    04:00 +13°C° 0 mm 4 mps 763 mmHg 92%
    05:00 +15°C° 0 mm 4 mps 763 mmHg 85%
    06:00 +18°C° 0 mm 4 mps 763 mmHg 78%
    07:00 +20°C° 0 mm 4 mps 763 mmHg 72%
    08:00 +21°C° 0 mm 5 mps 763 mmHg 68%
    09:00 +21°C° 0 mm 5 mps 763 mmHg 64%
    10:00 +22°C° 0 mm 6 mps 763 mmHg 60%
    11:00 +23°C° 0 mm 6 mps 763 mmHg 58%
    12:00 +23°C° 0 mm 6 mps 762 mmHg 56%
    13:00 +24°C° 0 mm 7 mps 762 mmHg 54%
    14:00 +23°C° 0 mm 7 mps 762 mmHg 54%
    15:00 +23°C° 0 mm 7 mps 761 mmHg 55%
    16:00 +23°C° 0 mm 7 mps 761 mmHg 56%
    17:00 +22°C° 0 mm 7 mps 761 mmHg 60%
    18:00 +21°C° 0 mm 6 mps 760 mmHg 65%
    19:00 +21°C° 0 mm 5 mps 760 mmHg 70%
    20:00 +20°C° 0 mm 6 mps 760 mmHg 74%
    21:00 +19°C° 0 mm 6 mps 760 mmHg 79%
    22:00 +17°C° 0 mm 6 mps 760 mmHg 83%
    23:00 +16°C° 0 mm 6 mps 759 mmHg 83%

    30 June, Sunday

    Time Temperature Precipitation Wind Pressure Humidity
    00:00 +16°C° 0 mm 6 mps 759 mmHg 83%
    01:00 +16°C° 0 mm 6 mps 759 mmHg 82%
    02:00 +16°C° 0 mm 6 mps 759 mmHg 84%
    03:00 +16°C° 0 mm 6 mps 759 mmHg 85%
    04:00 +15°C° 0 mm 5 mps 759 mmHg 87%
    05:00 +17°C° 0 mm 5 mps 758 mmHg 81%
    06:00 +20°C° 0 mm 4 mps 758 mmHg 75%
    07:00 +22°C° 0 mm 4 mps 758 mmHg 69%
    08:00 +25°C° 0 mm 3 mps 758 mmHg 60%
    09:00 +27°C° 0 mm 3 mps 758 mmHg 51%
    10:00 +29°C° 0 mm 3 mps 758 mmHg 43%
    11:00 +30°C° 0 mm 3 mps 758 mmHg 41%
    12:00 +32°C° 0 mm 4 mps 757 mmHg 40%
    13:00 +33°C° 0 mm 4 mps 757 mmHg 38%
    14:00 +33°C° 0 mm 4 mps 756 mmHg 40%
    15:00 +33°C° 0 mm 4 mps 756 mmHg 41%
    16:00 +33°C° 0 mm 4 mps 755 mmHg 43%
    17:00 +30°C° 0 mm 4 mps 755 mmHg 49%
    18:00 +28°C° 0 mm 4 mps 754 mmHg 55%
    19:00 +27°C° 0 mm 4 mps 754 mmHg 61%
    20:00 +25°C° 0.1 mm 5 mps 754 mmHg 67%
    21:00 +23°C° 0.1 mm 6 mps 754 mmHg 74%
    22:00 +21°C° 0.1 mm 8 mps 754 mmHg 81%
    23:00 +20°C° 0 mm 8 mps 754 mmHg 79%

    1 July, Monday

    Time Temperature Precipitation Wind Pressure Humidity
    00:00 +18°C° 0 mm 8 mps 754 mmHg 76%
    01:00 +17°C° 0 mm 8 mps 754 mmHg 74%
    02:00 +17°C° 0 mm 8 mps 754 mmHg 78%
    03:00 +16°C° 0 mm 8 mps 754 mmHg 82%
    04:00 +16°C° 0 mm 8 mps 754 mmHg 86%
    05:00 +16°C° 0 mm 8 mps 755 mmHg 82%
    06:00 +17°C° 0 mm 9 mps 755 mmHg 79%
    07:00 +17°C° 0 mm 9 mps 755 mmHg 76%
    08:00 +18°C° 0 mm 9 mps 755 mmHg 71%
    09:00 +19°C° 0 mm 9 mps 755 mmHg 66%
    10:00 +21°C° 0 mm 9 mps 755 mmHg 62%
    11:00 +22°C° 0 mm 10 mps 756 mmHg 60%
    12:00 +22°C° 0 mm 10 mps 756 mmHg 59%
    13:00 +22°C° 0 mm 10 mps 756 mmHg 57%
    14:00 +22°C° 0 mm 10 mps 756 mmHg 60%
    15:00 +21°C° 0 mm 10 mps 755 mmHg 62%
    16:00 +21°C° 0 mm 10 mps 755 mmHg 65%
    17:00 +19°C° 0 mm 9 mps 755 mmHg 65%
    18:00 +18°C° 0 mm 9 mps 755 mmHg 66%
    19:00 +18°C° 0 mm 8 mps 755 mmHg 67%
    20:00 +17°C° 0 mm 8 mps 755 mmHg 71%
    21:00 +16°C° 0 mm 9 mps 755 mmHg 76%
    22:00 +15°C° 0 mm 9 mps 755 mmHg 80%
    23:00 +13°C° 0.1 mm 8 mps 756 mmHg 79%
    Show more